Satellite-Ground Cal/Val Site Overpasses Predictions

Prediction of Satellite NPP Overpassing Cal/Val Site: Antarctic Dome C

Ground Cal/Val Site Location: Latitude: -75.10, Longitude: 123.35; Satellite-Ground Site NADIR distance within 100 km.

Table of predicted overpasses for the next 14.0 days since TLE Epoch: 4/16/2012
Interval Starting Time Ending Time Minimum Distance Time Minimum Distance (km)
1 04/16/2012 14:47:48 04/16/2012 14:48:17 04/16/2012 14:48:03 14.65
2 04/18/2012 07:30:37 04/18/2012 07:31:06 04/18/2012 07:30:51 5.07
3 04/21/2012 14:54:03 04/21/2012 14:54:31 04/21/2012 14:54:17 21.74
4 04/22/2012 14:35:19 04/22/2012 14:35:34 04/22/2012 14:35:27 85.44
5 04/23/2012 07:36:52 04/23/2012 07:37:18 04/23/2012 07:37:05 39.84
6 04/24/2012 07:18:04 04/24/2012 07:18:24 04/24/2012 07:18:14 70.07
7 04/26/2012 15:00:17 04/26/2012 15:00:41 04/26/2012 15:00:29 58.75
8 04/27/2012 14:41:27 04/27/2012 14:41:52 04/27/2012 14:41:39 50.61
9 04/28/2012 07:43:08 04/28/2012 07:43:27 04/28/2012 07:43:18 74.89
